Theta_e
312 312 313 314 314 313 314 315 316 317 315 315 314 313 312 311 310 310 309 309 307 306 305 304 304 303 303 303 302 301 300 300 300 299 298 296 296 295 295 294 294 295 295 296
314 312 313 313 314 313 313 314 314 314 314 315 314 312 311 310 310 309 309 308 306 304 303 303 303 303 302 302 301 300 300 300 299 297 296 295 295 294 294 294 295 295 295 295
319 315 315 318 317 317 316 314 314 314 314 312 311 311 310 310 309 309 307 305 304 303 303 302 302 301 301 301 300 300 299 298 297 296 295 295 294 294 294 294 294 295 295 294
321 317 318 314 312 313 314 313 313 313 312 312 311 310 310 309 309 307 305 303 302 302 302 302 301 301 300 300 300 299 298 297 296 295 295 294 294 294 294 294 295 294 294 294
321 318 316 311 310 311 312 312 313 312 312 311 310 310 310 307 305 304 303 302 301 301 301 301 301 300 299 299 299 298 297 297 295 294 294 294 293 293 293 294 293 293 293 294
315 325 318 312 310 309 310 312 311 311 312 311 310 311 309 306 303 302 302 301 301 301 301 300 300 300 299 299 298 297 297 295 294 294 294 293 293 293 294 293 293 293 293 293
315 317 314 311 309 309 311 314 311 311 311 310 310 309 306 303 302 301 301 301 301 301 300 300 300 299 298 298 297 297 296 295 294 294 293 293 293 294 293 293 293 293 293 293
314 316 317 309 309 311 313 310 310 310 310 309 308 304 302 302 301 301 301 300 300 300 300 300 300 299 298 298 297 296 295 294 294 294 293 293 293 293 293 292 293 293 293 294
314 315 311 309 311 309 309 310 309 309 307 307 304 302 301 301 301 301 301 300 300 300 300 300 300 299 298 298 296 295 295 294 294 293 292 293 293 292 292 293 293 293 293 295
312 312 310 309 309 308 307 308 308 307 306 303 303 301 301 301 301 301 300 300 300 300 300 300 299 299 298 297 296 295 295 294 294 293 292 292 292 292 292 293 293 293 294 294
311 311 310 309 308 309 307 306 306 304 303 302 301 301 301 301 301 301 301 301 300 300 300 300 299 299 298 297 295 295 294 294 293 292 292 291 291 292 293 292 293 293 294 293
311 311 311 310 309 308 307 305 304 303 301 301 301 301 301 301 301 301 301 301 300 300 300 300 299 298 298 296 295 294 294 294 293 292 291 291 292 292 292 292 293 293 293 293
310 308 308 307 307 306 306 305 303 302 301 301 301 301 301 301 301 301 301 300 300 300 300 299 299 298 297 296 295 294 294 293 292 291 291 291 292 292 291 292 292 293 292 293
307 306 307 306 306 305 305 303 301 301 301 301 301 301 301 301 300 300 300 300 300 299 299 299 298 297 297 295 294 294 294 292 292 291 290 291 291 291 291 291 291 292 292 292
306 306 306 306 305 304 303 302 301 301 301 301 301 301 301 300 300 300 300 300 299 299 299 299 298 297 296 295 294 294 293 292 291 290 290 291 291 291 291 291 291 291 292 292
306 304 305 305 304 303 303 302 301 301 301 301 301 301 300 300 299 300 300 300 299 299 299 298 298 297 296 294 294 293 292 291 290 290 290 291 291 290 290 290 290 291 291 291
304 304 304 305 304 303 303 302 301 301 301 301 300 300 299 299 299 300 300 299 299 299 298 298 297 296 296 294 293 292 291 290 290 289 290 290 290 290 289 289 290 290 290 290
305 304 304 304 303 303 302 301 300 300 301 300 299 299 299 299 299 299 299 299 299 299 298 298 297 296 294 294 292 292 291 291 289 289 290 290 290 290 289 289 289 290 289 289
303 303 303 303 303 302 302 301 301 300 299 299 299 299 299 299 299 299 298 299 299 299 298 297 297 295 294 293 292 291 290 290 289 289 290 290 289 290 289 289 289 289 289 289
302 302 302 302 302 302 302 300 300 299 299 299 298 298 298 298 298 298 298 299 299 299 298 297 296 294 294 292 291 288 290 289 290 289 290 289 289 289 289 289 288 288 288 289
302 302 302 302 301 301 300 299 299 299 299 299 298 298 298 298 298 298 298 298 298 298 296 295 295 294 293 292 289 288 289 289 290 289 289 289 288 288 289 288 288 288 288 288
302 301 300 300 300 300 299 299 299 298 299 298 298 298 296 296 295 295 295 296 297 296 295 294 294 294 293 291 288 287 288 289 289 289 289 288 288 288 288 288 288 288 288 288
300 299 299 299 299 299 298 299 299 298 298 298 298 296 295 294 294 294 294 295 295 296 295 294 294 293 292 289 287 287 288 288 289 288 288 288 288 288 288 287 288 288 288 288
298 298 298 297 297 297 299 299 298 298 298 298 296 295 294 294 293 293 293 294 294 296 294 294 294 293 291 288 287 287 287 287 288 288 288 288 288 288 287 287 287 288 288 288
298 298 297 298 299 299 298 299 298 298 297 297 296 295 294 294 293 293 293 294 294 295 294 294 293 291 288 287 287 286 287 287 286 288 288 288 288 288 287 287 287 287 288 288
298 299 298 298 298 298 298 298 297 297 296 295 295 294 294 293 293 294 294 294 294 294 294 293 292 289 287 287 286 286 286 286 286 288 288 287 287 287 287 287 287 287 287 288
297 298 298 298 298 298 298 297 296 296 295 294 294 294 293 293 293 294 295 294 294 294 293 292 291 288 287 286 286 286 285 286 286 287 288 287 287 287 287 287 287 287 287 287
Wind_Speed
2 2 2 4 5 9 12 13 10 8 5 5 4 7 8 8 8 6 5 3 5 9 12 14 15 15 15 13 11 10 12 14 17 19 20 21 22 23 24 25 26 26 27 26
3 1 4 7 9 10 11 13 13 12 14 8 5 3 6 7 8 7 5 5 9 11 13 14 15 14 13 10 10 12 15 18 19 20 21 22 23 24 25 26 26 26 26 28
1 0 5 10 11 13 9 7 8 9 4 5 4 6 8 6 6 5 3 7 10 12 13 14 14 11 10 11 12 15 17 18 19 20 22 23 24 25 26 27 27 26 27 30
2 3 4 4 5 4 7 4 8 3 2 2 2 5 5 5 5 2 5 8 10 12 13 13 11 9 10 12 14 16 17 19 20 21 23 24 25 26 26 26 25 26 29 29
3 5 7 7 3 3 4 1 7 8 4 6 5 4 10 5 3 2 5 8 10 12 12 11 10 11 12 14 15 16 18 19 21 22 24 24 26 27 26 25 28 30 29 29
2 2 3 4 5 3 2 4 3 8 9 9 7 5 7 5 2 4 6 9 11 12 12 12 12 13 14 15 16 17 19 20 21 22 23 25 26 26 24 27 30 30 31 31
6 5 5 9 9 6 4 3 7 5 6 8 6 2 5 1 3 5 8 11 12 12 13 13 14 14 16 16 17 18 19 20 21 22 24 24 24 23 28 29 28 30 29 26
5 5 5 12 7 4 4 3 4 4 5 6 4 3 2 2 5 8 10 12 13 14 14 14 15 16 16 17 18 18 19 20 21 22 23 23 23 26 27 27 29 29 27 28
6 2 2 15 4 4 3 3 4 6 6 6 5 3 1 3 5 8 10 12 13 14 15 15 15 16 18 18 17 18 19 20 22 22 22 22 23 26 26 27 27 27 28 31
2 3 9 7 13 6 5 4 5 6 8 7 6 4 2 4 6 8 10 13 14 15 16 17 16 17 17 17 17 17 19 21 21 22 22 22 25 23 26 28 27 27 30 29
8 13 6 12 13 12 8 7 9 9 9 7 4 2 4 6 9 11 13 14 16 17 18 19 18 18 16 16 16 18 19 20 21 20 22 25 25 23 26 26 22 25 26 25
5 5 7 2 5 11 12 11 11 10 8 6 4 3 5 8 11 13 16 18 18 18 18 19 18 16 15 15 16 18 19 19 20 21 23 26 27 29 27 23 21 20 21 21
11 3 2 4 5 9 11 11 10 9 7 5 5 5 7 11 14 16 17 17 18 18 17 18 18 16 15 14 18 18 17 19 20 21 25 25 27 27 31 29 22 21 21 21
7 6 4 5 4 10 10 12 12 8 6 4 5 7 10 13 15 16 17 18 17 16 16 17 17 15 14 15 19 17 17 18 18 21 24 24 26 27 26 27 28 28 24 23
11 9 3 7 9 12 12 12 10 8 5 6 7 10 12 14 16 16 17 16 16 15 15 16 16 14 13 18 18 16 16 16 18 23 22 21 25 26 26 27 25 25 27 27
12 9 8 9 12 12 12 11 10 7 6 7 8 11 13 14 16 16 16 15 14 15 16 16 15 13 17 17 16 16 15 18 19 20 20 21 25 26 26 25 24 24 26 27
17 13 12 11 11 12 11 8 9 7 6 7 9 12 14 15 15 15 15 14 14 15 16 16 14 15 17 16 15 14 18 17 21 21 18 21 24 25 26 24 23 24 26 27
9 9 10 9 11 10 8 8 7 5 5 7 11 12 13 13 14 14 14 14 14 16 15 13 18 16 14 14 16 16 15 16 20 19 18 21 23 25 26 24 24 24 28 27
10 10 11 9 8 7 7 6 4 4 7 9 11 12 13 13 13 14 14 14 15 16 13 15 17 14 12 13 17 14 14 17 17 18 19 21 23 22 25 25 24 25 25 29
11 10 10 9 8 6 5 4 4 7 9 11 14 13 14 14 13 13 13 14 15 12 19 16 13 11 12 11 16 16 14 16 17 18 20 21 21 22 23 23 25 25 27 27
12 10 10 8 6 5 3 5 7 6 11 12 13 13 13 13 13 15 16 16 13 15 13 15 12 11 9 14 16 16 14 15 17 17 21 20 21 21 22 24 25 24 28 25
14 12 9 7 4 3 3 6 7 9 10 13 12 13 15 17 16 14 12 14 11 10 12 14 12 12 12 15 16 16 14 14 16 17 19 20 20 22 22 23 24 25 26 24
13 10 7 5 4 3 6 5 8 10 11 11 13 15 16 16 15 15 17 13 13 12 11 9 11 11 13 14 15 15 13 13 15 18 18 18 19 20 22 23 22 25 24 26
11 7 5 4 4 4 2 6 9 10 11 13 14 14 14 15 14 12 15 15 12 9 7 10 9 11 12 13 14 14 13 14 15 19 17 17 18 21 21 22 22 23 23 27
7 5 4 2 2 3 6 6 8 10 10 11 11 12 12 11 15 16 14 12 8 4 8 10 9 10 11 12 13 14 14 13 15 18 17 18 20 21 22 23 23 23 23 26
5 5 5 4 4 4 5 7 8 8 8 10 9 10 10 11 12 13 11 9 6 5 7 7 7 9 10 12 13 13 13 14 15 18 18 18 21 21 22 23 24 24 24 26
7 6 4 3 3 4 6 8 8 7 8 9 10 8 11 11 11 12 6 6 7 6 4 5 7 9 10 11 12 13 13 14 14 17 19 19 22 22 23 23 23 23 24 26
Wind_Direction
46 23 327 298 224 212 227 247 274 294 303 320 239 217 222 210 205 208 224 267 324 330 331 328 324 317 314 304 291 290 292 299 301 300 302 303 302 303 303 302 301 301 300 299
245 234 277 270 256 247 240 253 266 279 282 321 303 207 194 205 210 233 257 320 329 331 327 324 322 318 310 305 298 296 301 301 301 304 306 306 306 307 305 304 303 301 300 296
205 67 288 264 247 231 237 244 253 257 21 104 134 185 202 204 220 252 282 319 331 328 324 318 313 308 304 300 301 302 303 305 307 308 308 308 308 307 305 305 304 302 299 299
308 272 246 76 51 3 212 257 227 230 192 217 213 210 212 219 250 244 325 327 325 321 319 313 311 302 298 301 303 304 306 309 310 309 308 309 308 307 306 306 304 302 303 305
254 240 309 161 189 181 204 303 221 231 197 198 182 213 228 174 117 3 335 327 319 319 316 314 306 300 300 303 305 307 310 310 309 310 310 309 308 308 308 304 303 311 307 305
166 254 252 72 142 158 181 251 149 184 195 189 181 249 100 134 350 344 332 321 318 319 316 311 306 299 301 305 307 309 309 308 310 310 309 309 309 308 308 306 306 311 313 312
218 241 270 120 148 165 231 62 150 182 195 195 212 25 118 66 353 342 330 327 321 319 313 309 305 301 301 306 309 308 309 310 311 311 311 311 311 310 309 309 307 318 315 316
211 213 244 149 141 220 88 112 159 180 183 191 176 116 83 9 344 335 328 329 324 318 313 309 306 303 303 306 308 308 311 311 312 312 313 314 312 310 310 312 315 318 320 326
206 238 115 185 59 135 141 173 195 187 171 172 158 152 186 296 319 325 327 327 326 319 312 309 307 303 300 305 308 310 312 313 314 315 316 315 312 315 318 319 320 318 322 326
338 179 219 215 220 211 203 219 192 184 166 162 175 188 281 313 312 319 320 320 321 323 319 314 309 304 302 304 306 309 314 315 316 317 316 314 317 324 320 322 319 320 323 324
252 263 226 242 232 226 219 200 170 159 164 167 170 215 281 307 315 313 312 314 315 315 316 317 314 307 304 301 305 312 314 317 317 317 316 317 329 325 321 320 319 319 321 324
253 348 221 80 209 202 193 181 174 163 167 176 194 254 285 297 306 309 311 311 309 308 310 315 314 309 303 301 308 313 314 318 317 316 317 331 330 325 323 326 323 323 325 321
263 191 151 145 164 178 179 175 172 175 178 190 227 263 287 297 305 303 308 311 311 306 306 314 314 309 305 303 310 315 314 316 317 316 325 330 327 325 325 330 331 328 330 325
193 162 189 194 193 174 172 171 176 179 189 212 256 282 295 300 306 308 311 312 308 306 310 315 315 310 307 307 316 317 316 317 318 319 325 327 327 327 328 331 329 329 330 330
197 201 224 175 159 164 168 175 179 193 216 251 277 293 303 305 308 308 312 313 313 310 313 315 315 309 307 313 320 318 319 317 320 319 326 328 331 330 330 331 330 330 331 334
183 184 169 166 165 169 178 189 198 211 242 274 295 304 305 307 310 312 314 315 309 308 312 315 314 312 313 320 320 322 316 320 323 329 332 337 338 335 332 331 333 334 335 336
165 175 174 175 178 186 195 202 213 236 269 299 306 305 309 311 310 312 310 311 311 311 315 314 312 313 320 322 323 326 316 334 320 331 340 335 338 340 338 334 335 336 339 336
171 169 172 178 183 186 194 204 217 255 287 293 304 308 311 312 310 313 312 312 316 321 324 310 315 320 322 321 325 327 329 322 320 338 338 335 334 338 338 340 339 339 341 343
147 153 159 158 167 176 190 203 230 269 302 309 312 315 314 316 312 310 313 314 320 322 323 320 322 325 325 318 330 332 327 321 330 346 340 337 335 338 340 347 344 342 345 345
152 157 158 164 176 183 208 227 267 300 310 309 317 323 322 325 324 319 315 316 321 312 320 325 325 325 326 326 332 339 335 329 334 345 336 335 336 341 344 350 350 345 348 346
169 164 171 175 189 205 219 275 297 303 306 316 322 326 330 329 324 317 314 314 319 314 337 339 332 326 328 330 340 340 338 332 334 342 339 338 340 343 343 349 349 350 353 349
157 159 159 163 171 197 266 292 294 306 316 319 326 331 331 332 331 326 322 315 303 312 334 333 325 324 334 340 341 342 342 339 334 344 341 341 342 346 347 345 350 352 351 351
154 164 178 198 220 250 278 292 296 313 318 322 326 330 333 335 332 335 333 322 301 306 318 329 326 332 341 343 343 346 346 340 340 348 345 343 344 349 348 349 352 354 353 360
165 177 197 240 271 279 275 286 309 319 319 319 324 327 327 329 326 332 325 324 312 319 310 320 328 337 344 346 347 349 347 350 347 352 350 351 353 353 352 353 351 351 352 357
177 191 224 202 197 275 296 303 316 315 317 322 325 325 323 319 321 330 331 330 326 318 308 332 335 344 351 350 351 353 354 354 355 358 359 2 355 355 356 356 354 352 351 355
174 172 190 204 262 283 301 313 315 316 313 319 326 329 328 325 320 329 331 336 331 324 331 338 343 351 354 353 357 358 358 358 0 5 4 5 1 2 358 357 358 358 357 356
184 186 197 232 252 291 304 308 311 314 319 318 316 326 321 327 318 338 342 359 351 339 353 349 357 359 2 0 3 3 2 3 3 7 11 8 7 7 2 1 1 4 1 355